| time (UTC) | temp F | wind direction | speed MPH | gust MPH | rain 1hr in | rain 24hr in | rain mn in | humidity % | barometer mb |
| 20260906061814 | 64 | 325 | 1.0 | 2.0 | 0.00 | 0.00 | 0.00 | 85 | 1012.5 |
| 20260906061312 | 64 | 324 | 0.0 | 1.0 | 0.00 | 0.00 | 0.00 | 85 | 1012.7 |
| 20260906060829 | 64 | 324 | 0.0 | 0.0 | 0.00 | 0.00 | 0.00 | 85 | 1012.7 |
| 20260906060326 | 64 | 324 | 0.0 | 0.0 | 0.00 | 0.00 | 0.00 | 85 | 1012.6 |
| 20260906055823 | 64 | 324 | 0.0 | 0.0 | 0.00 | 0.00 | 0.00 | 84 | 1012.7 |
| 20260906055320 | 64 | 324 | 0.0 | 0.0 | 0.00 | 0.00 | 0.00 | 83 | 1012.9 |
| 20260906054821 | 65 | 324 | 0.0 | 1.0 | 0.00 | 0.00 | 0.00 | 82 | 1012.8 |
| 20260906054319 | 65 | 324 | 0.0 | 2.0 | 0.00 | 0.00 | 0.00 | 82 | 1012.8 |
| 20260906053816 | 65 | 324 | 1.0 | 2.0 | 0.00 | 0.00 | 0.00 | 82 | 1012.7 |
| 20260906053313 | 66 | 319 | 1.0 | 3.0 | 0.00 | 0.00 | 0.00 | 82 | 1012.7 |
| 20260906052810 | 66 | 313 | 1.0 | 3.0 | 0.00 | 0.00 | 0.00 | 81 | 1012.7 |
| 20260906052329 | 66 | 314 | 1.0 | 2.0 | 0.00 | 0.00 | 0.00 | 81 | 1012.6 |
| 20260906051825 | 66 | 325 | 1.0 | 3.0 | 0.00 | 0.00 | 0.00 | 81 | 1012.6 |
| 20260906051328 | 66 | 329 | 2.0 | 3.0 | 0.00 | 0.00 | 0.00 | 81 | 1012.6 |
| 20260906050824 | 66 | 309 | 2.0 | 3.0 | 0.00 | 0.00 | 0.00 | 81 | 1012.7 |
| 20260906050321 | 66 | 333 | 2.0 | 4.0 | 0.00 | 0.00 | 0.00 | 81 | 1012.7 |
| 20260906045818 | 66 | 327 | 1.0 | 4.0 | 0.00 | 0.00 | 0.00 | 80 | 1012.7 |
| 20260906045316 | 66 | 315 | 1.0 | 3.0 | 0.00 | 0.00 | 0.00 | 81 | 1012.8 |
| 20260906044812 | 66 | 314 | 1.0 | 3.0 | 0.00 | 0.00 | 0.00 | 80 | 1012.8 |
| 20260906044314 | 66 | 329 | 2.0 | 5.0 | 0.00 | 0.00 | 0.00 | 80 | 1012.8 |
| 20260906043811 | 67 | 323 | 2.0 | 5.0 | 0.00 | 0.00 | 0.00 | 79 | 1012.8 |
| 20260906043328 | 67 | 294 | 2.0 | 4.0 | 0.00 | 0.00 | 0.00 | 80 | 1012.7 |
| 20260906042825 | 67 | 306 | 1.0 | 3.0 | 0.00 | 0.00 | 0.00 | 80 | 1012.8 |
| 20260906042323 | 67 | 339 | 2.0 | 3.0 | 0.00 | 0.00 | 0.00 | 79 | 1012.7 |
| 20260906041820 | 67 | 81 | 1.0 | 2.0 | 0.00 | 0.00 | 0.00 | 79 | 1012.7 |
| 20260906041319 | 67 | 5 | 0.0 | 3.0 | 0.00 | 0.00 | 0.00 | 80 | 1012.7 |
| 20260906040819 | 67 | 344 | 1.0 | 4.0 | 0.00 | 0.00 | 0.00 | 80 | 1012.7 |
| 20260906040316 | 67 | 340 | 1.0 | 4.0 | 0.00 | 0.00 | 0.00 | 79 | 1012.7 |
| 20260906035813 | 68 | 329 | 2.0 | 4.0 | 0.00 | 0.00 | 0.00 | 79 | 1012.7 |
| 20260906035311 | 67 | 312 | 3.0 | 4.0 | 0.00 | 0.00 | 0.00 | 78 | 1012.8 |
| 20260906034827 | 67 | 322 | 2.0 | 5.0 | 0.00 | 0.00 | 0.00 | 78 | 1012.8 |
| 20260906034325 | 67 | 310 | 2.0 | 5.0 | 0.00 | 0.00 | 0.00 | 78 | 1012.9 |
| 20260906033822 | 67 | 329 | 1.0 | 3.0 | 0.00 | 0.00 | 0.00 | 79 | 1012.7 |
| 20260906033323 | 67 | 335 | 1.0 | 3.0 | 0.00 | 0.00 | 0.00 | 80 | 1012.6 |
| 20260906032820 | 67 | 327 | 1.0 | 2.0 | 0.00 | 0.00 | 0.00 | 80 | 1012.7 |
| 20260906032318 | 67 | 342 | 0.0 | 3.0 | 0.00 | 0.00 | 0.00 | 80 | 1012.6 |
| 20260906031815 | 67 | 347 | 1.0 | 3.0 | 0.00 | 0.00 | 0.00 | 80 | 1012.6 |
| 20260906031312 | 67 | 325 | 1.0 | 3.0 | 0.00 | 0.00 | 0.00 | 81 | 1012.6 |
| 20260906030829 | 67 | 346 | 1.0 | 3.0 | 0.00 | 0.00 | 0.00 | 82 | 1012.6 |
| 20260906030326 | 67 | 348 | 0.0 | 2.0 | 0.00 | 0.00 | 0.00 | 83 | 1012.6 |
| 20260906025827 | 67 | 317 | 0.0 | 1.0 | 0.00 | 0.00 | 0.00 | 82 | 1012.5 |
| 20260906025325 | 67 | 350 | 0.0 | 2.0 | 0.00 | 0.00 | 0.00 | 82 | 1012.6 |
| 20260906024822 | 67 | 350 | 0.0 | 2.0 | 0.00 | 0.00 | 0.00 | 82 | 1012.7 |
| 20260906024320 | 68 | 319 | 0.0 | 2.0 | 0.00 | 0.00 | 0.00 | 81 | 1012.6 |
| 20260906023817 | 68 | 319 | 0.0 | 2.0 | 0.00 | 0.00 | 0.00 | 81 | 1012.5 |
| 20260906023314 | 68 | 355 | 0.0 | 3.0 | 0.00 | 0.00 | 0.00 | 82 | 1012.5 |
| 20260906022811 | 68 | 107 | 1.0 | 3.0 | 0.00 | 0.00 | 0.00 | 83 | 1012.5 |
| 20260906022313 | 68 | 342 | 0.0 | 3.0 | 0.00 | 0.00 | 0.00 | 83 | 1012.4 |
| 20260906021810 | 68 | 348 | 1.0 | 3.0 | 0.00 | 0.00 | 0.00 | 82 | 1012.3 |
| 20260906021327 | 68 | 5 | 0.0 | 2.0 | 0.00 | 0.00 | 0.00 | 82 | 1012.3 |
| 20260906020824 | 68 | 349 | 0.0 | 2.0 | 0.00 | 0.00 | 0.00 | 82 | 1012.4 |
| 20260906020321 | 69 | 355 | 1.0 | 2.0 | 0.00 | 0.00 | 0.00 | 82 | 1012.3 |
| 20260906015818 | 69 | 337 | 0.0 | 2.0 | 0.00 | 0.00 | 0.00 | 81 | 1012.4 |
| 20260906015315 | 69 | 328 | 0.0 | 6.0 | 0.00 | 0.00 | 0.00 | 81 | 1012.3 |
| 20260906014815 | 69 | 347 | 2.0 | 6.0 | 0.00 | 0.00 | 0.00 | 81 | 1012.3 |
| 20260906014313 | 69 | 334 | 0.0 | 2.0 | 0.00 | 0.00 | 0.00 | 81 | 1012.2 |
| 20260906013829 | 69 | 317 | 0.0 | 3.0 | 0.00 | 0.00 | 0.00 | 81 | 1012.2 |
| 20260906013326 | 69 | 317 | 1.0 | 3.0 | 0.00 | 0.00 | 0.00 | 81 | 1012.1 |
| 20260906012823 | 69 | 5 | 1.0 | 2.0 | 0.00 | 0.00 | 0.00 | 80 | 1012.1 |
| 20260906012320 | 70 | 301 | 1.0 | 3.0 | 0.00 | 0.00 | 0.00 | 81 | 1012.0 |
| 20260906011817 | 70 | 311 | 2.0 | 3.0 | 0.00 | 0.00 | 0.00 | 80 | 1012.0 |
| 20260906011319 | 70 | 309 | 2.0 | 3.0 | 0.00 | 0.00 | 0.00 | 80 | 1012.0 |
| 20260906010816 | 70 | 317 | 1.0 | 3.0 | 0.00 | 0.00 | 0.00 | 80 | 1012.0 |
| 20260906010313 | 70 | 329 | 0.0 | 2.0 | 0.00 | 0.00 | 0.00 | 80 | 1012.0 |
| 20260906005810 | 70 | 319 | 0.0 | 1.0 | 0.00 | 0.00 | 0.00 | 81 | 1011.9 |
| 20260906005328 | 70 | 302 | 0.0 | 3.0 | 0.00 | 0.00 | 0.00 | 80 | 1011.8 |
| 20260906004825 | 70 | 303 | 0.0 | 3.0 | 0.00 | 0.00 | 0.00 | 81 | 1011.7 |
| 20260906004323 | 70 | 327 | 1.0 | 3.0 | 0.00 | 0.00 | 0.00 | 81 | 1011.8 |
| 20260906003824 | 70 | 315 | 2.0 | 3.0 | 0.00 | 0.00 | 0.00 | 81 | 1011.7 |
| 20260906003321 | 70 | 355 | 1.0 | 4.0 | 0.00 | 0.00 | 0.00 | 82 | 1011.7 |
| 20260906002818 | 70 | 27 | 2.0 | 4.0 | 0.00 | 0.00 | 0.00 | 82 | 1011.7 |
| 20260906002315 | 70 | 319 | 1.0 | 2.0 | 0.00 | 0.00 | 0.00 | 83 | 1011.6 |
| 20260906001812 | 70 | 314 | 1.0 | 2.0 | 0.00 | 0.00 | 0.00 | 83 | 1011.5 |
| 20260906001330 | 70 | 321 | 1.0 | 2.0 | 0.00 | 0.00 | 0.00 | 83 | 1011.4 |
| 20260906000810 | 70 | 320 | 1.0 | 2.0 | 0.00 | 0.00 | 0.00 | 83 | 1011.4 |
| 20260906000327 | 70 | 298 | 0.0 | 0.0 | 0.00 | 0.00 | 0.00 | 82 | 1011.2 |
| 20260905235824 | 70 | 299 | 0.0 | 0.0 | 0.00 | 0.00 | 0.00 | 82 | 1011.2 |
| 20260905235322 | 70 | 299 | 0.0 | 0.0 | 0.00 | 0.00 | 0.00 | 81 | 1011.1 |
| 20260905234819 | 70 | 317 | 0.0 | 0.0 | 0.00 | 0.00 | 0.00 | 80 | 1011.1 |
| 20260905234316 | 71 | 317 | 0.0 | 0.0 | 0.00 | 0.00 | 0.00 | 79 | 1011.0 |
| 20260905233813 | 71 | 317 | 0.0 | 1.0 | 0.00 | 0.00 | 0.00 | 79 | 1010.9 |
| 20260905233314 | 71 | 317 | 0.0 | 1.0 | 0.00 | 0.00 | 0.00 | 80 | 1010.9 |
| 20260905232928 | 71 | 310 | 0.0 | 0.0 | 0.00 | 0.00 | 0.00 | 79 | 1010.9 |
| 20260905145826 | 74 | 303 | 2.0 | 8.0 | 0.00 | 0.01 | 0.00 | 71 | 1011.2 |
| 20260905145324 | 73 | 22 | 4.0 | 8.0 | 0.00 | 0.01 | 0.00 | 70 | 1011.2 |
| 20260905144821 | 72 | 22 | 2.0 | 11.0 | 0.00 | 0.01 | 0.00 | 69 | 1011.2 |
| 20260905144318 | 72 | 61 | 5.0 | 11.0 | 0.00 | 0.01 | 0.00 | 69 | 1011.2 |
| 20260905143815 | 72 | 349 | 2.0 | 9.0 | 0.00 | 0.01 | 0.00 | 69 | 1011.2 |
| 20260905143312 | 72 | 28 | 2.0 | 9.0 | 0.00 | 0.01 | 0.00 | 70 | 1011.2 |
| 20260905142812 | 72 | 47 | 4.0 | 12.0 | 0.00 | 0.01 | 0.00 | 71 | 1011.0 |
| 20260905142329 | 72 | 14 | 5.0 | 12.0 | 0.00 | 0.01 | 0.00 | 71 | 1011.1 |
| 20260905141826 | 72 | 346 | 3.0 | 10.0 | 0.00 | 0.01 | 0.00 | 72 | 1011.1 |
| 20260905141324 | 72 | 333 | 3.0 | 9.0 | 0.00 | 0.01 | 0.00 | 72 | 1011.1 |
| 20260905140821 | 71 | 30 | 4.0 | 15.0 | 0.00 | 0.01 | 0.00 | 70 | 1011.1 |
| 20260905140318 | 71 | 256 | 4.0 | 9.0 | 0.00 | 0.01 | 0.00 | 73 | 1011.1 |
| 20260905135814 | 71 | 302 | 4.0 | 11.0 | 0.00 | 0.01 | 0.00 | 72 | 1011.1 |
| 20260905135316 | 71 | 321 | 5.0 | 11.0 | 0.00 | 0.01 | 0.00 | 72 | 1011.1 |
| 20260905134813 | 71 | 326 | 4.0 | 10.0 | 0.00 | 0.01 | 0.00 | 72 | 1011.0 |
| 20260905134310 | 71 | 332 | 4.0 | 10.0 | 0.00 | 0.01 | 0.00 | 74 | 1011.0 |
| 20260905133827 | 71 | 355 | 2.0 | 11.0 | 0.00 | 0.01 | 0.00 | 73 | 1010.9 |
| 20260905133324 | 71 | 279 | 4.0 | 11.0 | 0.00 | 0.01 | 0.00 | 74 | 1011.1 |
| 20260905132820 | 70 | 23 | 3.0 | 11.0 | 0.00 | 0.01 | 0.00 | 73 | 1011.0 |
| 20260905132318 | 71 | 296 | 2.0 | 11.0 | 0.00 | 0.01 | 0.00 | 74 | 1011.0 |
| 20260905131819 | 70 | 355 | 5.0 | 11.0 | 0.00 | 0.01 | 0.00 | 74 | 1011.0 |
| 20260905131316 | 70 | 331 | 4.0 | 10.0 | 0.00 | 0.01 | 0.00 | 75 | 1011.2 |
| 20260905130813 | 70 | 321 | 3.0 | 11.0 | 0.00 | 0.01 | 0.00 | 75 | 1011.0 |
| 20260905130310 | 70 | 329 | 6.0 | 11.0 | 0.00 | 0.01 | 0.00 | 75 | 1011.1 |
| 20260905125826 | 70 | 14 | 4.0 | 11.0 | 0.00 | 0.01 | 0.00 | 76 | 1011.1 |
| 20260905125324 | 70 | 324 | 4.0 | 11.0 | 0.00 | 0.01 | 0.00 | 76 | 1011.2 |
| 20260905124821 | 70 | 320 | 3.0 | 5.0 | 0.00 | 0.01 | 0.00 | 77 | 1011.4 |
| 20260905124321 | 69 | 348 | 2.0 | 8.0 | 0.00 | 0.01 | 0.00 | 78 | 1011.3 |
| 20260905123818 | 69 | 355 | 4.0 | 8.0 | 0.00 | 0.01 | 0.00 | 77 | 1011.5 |
| 20260905123315 | 69 | 319 | 3.0 | 5.0 | 0.00 | 0.01 | 0.00 | 77 | 1011.4 |
| 20260905122811 | 69 | 339 | 2.0 | 6.0 | 0.00 | 0.01 | 0.00 | 77 | 1011.6 |
| 20260905122329 | 69 | 325 | 3.0 | 6.0 | 0.00 | 0.01 | 0.00 | 78 | 1011.5 |
| 20260905121825 | 68 | 308 | 3.0 | 9.0 | 0.00 | 0.01 | 0.00 | 79 | 1011.6 |
| 20260905121322 | 68 | 318 | 4.0 | 10.0 | 0.00 | 0.01 | 0.00 | 78 | 1011.6 |
| 20260905120823 | 68 | 321 | 4.0 | 9.0 | 0.00 | 0.01 | 0.00 | 79 | 1011.6 |
| 20260905120319 | 68 | 355 | 3.0 | 9.0 | 0.00 | 0.01 | 0.00 | 79 | 1011.6 |
| 20260905115817 | 68 | 328 | 3.0 | 6.0 | 0.00 | 0.01 | 0.00 | 80 | 1011.6 |
| 20260905115315 | 67 | 334 | 3.0 | 9.0 | 0.00 | 0.01 | 0.00 | 81 | 1011.5 |
| 20260905114811 | 67 | 298 | 3.0 | 6.0 | 0.00 | 0.01 | 0.00 | 80 | 1011.6 |
| 20260905114329 | 67 | 325 | 2.0 | 5.0 | 0.00 | 0.01 | 0.00 | 81 | 1011.5 |
| 20260905113825 | 67 | 360 | 2.0 | 3.0 | 0.00 | 0.01 | 0.00 | 82 | 1011.3 |
| 20260905113326 | 67 | 17 | 2.0 | 3.0 | 0.00 | 0.01 | 0.00 | 82 | 1011.2 |
| 20260905112823 | 66 | 348 | 1.0 | 3.0 | 0.00 | 0.01 | 0.00 | 82 | 1011.2 |
| 20260905112321 | 66 | 336 | 1.0 | 3.0 | 0.00 | 0.01 | 0.00 | 83 | 1011.1 |
| 20260905111817 | 65 | 5 | 1.0 | 2.0 | 0.00 | 0.01 | 0.00 | 84 | 1011.0 |
| 20260905111315 | 65 | 339 | 1.0 | 2.0 | 0.00 | 0.01 | 0.00 | 84 | 1010.9 |
| 20260905110812 | 65 | 244 | 0.0 | 2.0 | 0.00 | 0.01 | 0.00 | 84 | 1010.8 |
| 20260905110313 | 65 | 299 | 1.0 | 2.0 | 0.00 | 0.01 | 0.00 | 83 | 1010.7 |
| 20260905105810 | 65 | 271 | 0.0 | 3.0 | 0.00 | 0.01 | 0.00 | 83 | 1010.7 |
| 20260905105326 | 65 | 279 | 1.0 | 3.0 | 0.00 | 0.01 | 0.00 | 83 | 1010.5 |
| 20260905104823 | 65 | 244 | 0.0 | 2.0 | 0.00 | 0.01 | 0.00 | 83 | 1010.4 |
| 20260905104321 | 65 | 309 | 0.0 | 3.0 | 0.00 | 0.01 | 0.00 | 82 | 1010.5 |
| 20260905103818 | 66 | 272 | 0.0 | 3.0 | 0.00 | 0.01 | 0.00 | 82 | 1010.4 |
| 20260905103315 | 66 | 338 | 1.0 | 3.0 | 0.00 | 0.01 | 0.00 | 82 | 1010.5 |
| 20260905102815 | 66 | 297 | 0.0 | 1.0 | 0.00 | 0.01 | 0.00 | 81 | 1010.6 |
| 20260905102313 | 66 | 297 | 0.0 | 1.0 | 0.00 | 0.01 | 0.00 | 80 | 1010.6 |
| 20260905101829 | 66 | 297 | 0.0 | 2.0 | 0.00 | 0.01 | 0.00 | 80 | 1010.5 |
| 20260905101326 | 66 | 297 | 1.0 | 2.0 | 0.00 | 0.01 | 0.00 | 79 | 1010.4 |
| 20260905100822 | 67 | 232 | 0.0 | 2.0 | 0.00 | 0.01 | 0.00 | 79 | 1010.4 |
| 20260905100319 | 67 | 272 | 0.0 | 2.0 | 0.00 | 0.01 | 0.00 | 78 | 1010.4 |
| 20260905095816 | 67 | 325 | 1.0 | 4.0 | 0.00 | 0.01 | 0.00 | 78 | 1010.3 |
| 20260905095317 | 67 | 5 | 1.0 | 4.0 | 0.00 | 0.01 | 0.00 | 78 | 1010.4 |
| 20260905094814 | 67 | 329 | 1.0 | 4.0 | 0.00 | 0.01 | 0.00 | 78 | 1010.3 |
| 20260905094312 | 67 | 311 | 1.0 | 5.0 | 0.00 | 0.01 | 0.00 | 78 | 1010.3 |
| 20260905093828 | 67 | 327 | 1.0 | 5.0 | 0.00 | 0.01 | 0.00 | 77 | 1010.3 |
| 20260905093326 | 68 | 271 | 1.0 | 8.0 | 0.00 | 0.01 | 0.00 | 78 | 1010.3 |
| 20260905092822 | 68 | 296 | 3.0 | 8.0 | 0.00 | 0.01 | 0.00 | 78 | 1010.3 |
| 20260905092319 | 68 | 328 | 2.0 | 5.0 | 0.00 | 0.01 | 0.00 | 77 | 1010.2 |
| 20260905091820 | 68 | 301 | 0.0 | 4.0 | 0.00 | 0.01 | 0.00 | 77 | 1010.2 |
| 20260905091316 | 68 | 285 | 1.0 | 4.0 | 0.00 | 0.01 | 0.00 | 76 | 1010.3 |
| 20260905090813 | 68 | 320 | 1.0 | 4.0 | 0.00 | 0.01 | 0.00 | 76 | 1010.3 |
| 20260905090330 | 68 | 332 | 2.0 | 4.0 | 0.00 | 0.01 | 0.00 | 75 | 1010.2 |
| 20260905085825 | 69 | 360 | 1.0 | 4.0 | 0.00 | 0.01 | 0.00 | 75 | 1010.2 |
| 20260905085324 | 69 | 332 | 1.0 | 4.0 | 0.00 | 0.01 | 0.00 | 75 | 1010.2 |
| 20260905084820 | 69 | 323 | 1.0 | 4.0 | 0.00 | 0.01 | 0.00 | 75 | 1010.2 |
| 20260905084320 | 69 | 323 | 2.0 | 6.0 | 0.00 | 0.01 | 0.00 | 75 | 1010.2 |
| 20260905083817 | 69 | 335 | 2.0 | 6.0 | 0.00 | 0.01 | 0.00 | 74 | 1010.2 |
| 20260905083314 | 69 | 325 | 2.0 | 4.0 | 0.00 | 0.01 | 0.00 | 75 | 1010.2 |
| 20260905082811 | 69 | 331 | 1.0 | 3.0 | 0.00 | 0.01 | 0.00 | 74 | 1010.2 |
| 20260905082329 | 69 | 280 | 1.0 | 3.0 | 0.00 | 0.01 | 0.00 | 74 | 1010.2 |
| 20260905081825 | 69 | 300 | 1.0 | 4.0 | 0.00 | 0.01 | 0.00 | 74 | 1010.3 |
| 20260905081322 | 69 | 335 | 1.0 | 5.0 | 0.00 | 0.01 | 0.00 | 74 | 1010.3 |
| 20260905080822 | 69 | 338 | 2.0 | 5.0 | 0.00 | 0.01 | 0.00 | 73 | 1010.2 |
| 20260905080319 | 70 | 344 | 1.0 | 4.0 | 0.00 | 0.01 | 0.00 | 75 | 1010.2 |
| 20260905075815 | 70 | 325 | 1.0 | 8.0 | 0.00 | 0.01 | 0.00 | 73 | 1010.3 |
| 20260905075313 | 70 | 5 | 1.0 | 5.0 | 0.00 | 0.01 | 0.00 | 73 | 1010.2 |
| 20260905074830 | 70 | 287 | 2.0 | 5.0 | 0.00 | 0.01 | 0.00 | 72 | 1010.2 |
| 20260905074325 | 70 | 17 | 2.0 | 6.0 | 0.00 | 0.01 | 0.00 | 72 | 1010.2 |
| 20260905073821 | 70 | 301 | 3.0 | 6.0 | 0.00 | 0.01 | 0.00 | 72 | 1010.2 |
| 20260905073322 | 70 | 287 | 0.0 | 6.0 | 0.00 | 0.01 | 0.00 | 71 | 1010.2 |
| 20260905072819 | 70 | 252 | 2.0 | 5.0 | 0.00 | 0.01 | 0.00 | 71 | 1010.2 |
| 20260905072317 | 70 | 337 | 2.0 | 5.0 | 0.00 | 0.01 | 0.00 | 71 | 1010.3 |
| 20260905071814 | 70 | 331 | 1.0 | 5.0 | 0.00 | 0.01 | 0.00 | 71 | 1010.3 |
| 20260905071330 | 70 | 17 | 1.0 | 4.0 | 0.00 | 0.01 | 0.00 | 71 | 1010.4 |
| 20260905070826 | 70 | 324 | 2.0 | 4.0 | 0.00 | 0.01 | 0.00 | 71 | 1010.4 |
| 20260905070323 | 71 | 5 | 1.0 | 3.0 | 0.00 | 0.01 | 0.00 | 71 | 1010.3 |
| 20260905065823 | 70 | 333 | 1.0 | 2.0 | 0.00 | 0.20 | 0.00 | 72 | 1010.4 |
| 20260905065321 | 71 | 307 | 0.0 | 1.0 | 0.00 | 0.20 | 0.00 | 71 | 1010.4 |
| 20260905064817 | 71 | 355 | 0.0 | 4.0 | 0.00 | 0.20 | 0.00 | 72 | 1010.4 |
| 20260905064314 | 71 | 344 | 1.0 | 4.0 | 0.00 | 0.20 | 0.00 | 71 | 1010.4 |
| 20260905063811 | 71 | 25 | 0.0 | 5.0 | 0.00 | 0.20 | 0.00 | 71 | 1010.4 |
| 20260905063328 | 71 | 317 | 2.0 | 8.0 | 0.00 | 0.20 | 0.00 | 72 | 1010.4 |
| 20260905062824 | 71 | 317 | 2.0 | 8.0 | 0.00 | 0.20 | 0.00 | 71 | 1010.5 |
| 20260905062326 | 71 | 297 | 1.0 | 2.0 | 0.00 | 0.20 | 0.00 | 72 | 1010.5 |